Weather History for Kimball, NE

Change the Weather History Date:

Thursday, May 17, 2012

  Actual Average (KSNY) Record (KSNY)
Temperature  
Mean Temperature 62 °F 58 °F  
Max Temperature 81 °F 72 °F 93 °F (1948)
Min Temperature 43 °F 44 °F 26 °F (1976)
Degree Days  
Heating Degree Days 3 8  
Month to date heating degree days 169  
Since 1 July heating degree days 6081  
Cooling Degree Days 0 1  
Month to date cooling degree days 8  
Year to date cooling degree days 9  
Growing Degree Days 12 (Base 50)    
Moisture  
Dew Point 35 °F    
Average Humidity 39    
Maximum Humidity 71    
Minimum Humidity 14    
Precipitation  
Precipitation 0.00 in 0.08 in 1.48 in (1983)
Month to date precipitation 1.63  
Year to date precipitation 5.30  
Sea Level Pressure  
Sea Level Pressure 29.82 in    
Wind  
Wind Speed 8 mph (WSW)    
Max Wind Speed 30 mph    
Max Gust Speed 37 mph    
Visibility 10 miles    
Events      
T = Trace of Precipitation, MM = Missing Value Source: NWS Daily Summary

Daily Weather History Graph

Daily Weather History Graph

Search for Another Location

Airport:

Trip Planner

Search our weather history database for the weather conditions in past years. The results will help you decide how hot, cold, wet, or windy it might be!

Date:

Astronomy

May. 17, 2012 Rise Set
Actual Time 6:34 AM CDT 9:08 PM CDT
Civil Twilight 6:02 AM CDT 9:40 PM CDT
Nautical Twilight 5:22 AM CDT 10:20 PM CDT
Astronomical Twilight 4:38 AM CDT 11:04 PM CDT
Moon 4:35 AM CDT (5/17) 6:22 PM CDT (5/17)
Length of Visible Light 15h 38m
Length of Day
14h 34m
Waning Crescent, 9% of the Moon is Illuminated
May 17
Waning Crescent
May 20
New
May 28
First Quarter
Jun 4
Full
Jun 11
Last Quarter

Hourly Weather History & Observations

Time (CDT) Temp. Windchill Dew Point Humidity Pressure Visibility Wind Dir Wind Speed Gust Speed Precip Events Conditions
12:15 AM 60.1 °F - 34.7 °F 39% 29.91 in 10.0 mi SW 4.6 mph - N/A   Clear
12:35 AM 59.4 °F - 34.9 °F 40% 29.91 in 10.0 mi WNW 6.9 mph - N/A   Clear
12:55 AM 58.5 °F - 34.9 °F 41% 29.90 in 10.0 mi West 9.2 mph - N/A   Clear
1:15 AM 57.6 °F - 35.6 °F 44% 29.90 in 10.0 mi WSW 6.9 mph - N/A   Clear
1:35 AM 55.8 °F - 36.1 °F 48% 29.89 in 10.0 mi SW 5.8 mph - N/A   Clear
2:15 AM 55.2 °F - 37.0 °F 50% 29.88 in 10.0 mi West 9.2 mph - N/A   Clear
2:35 AM 53.6 °F - 36.9 °F 53% 29.87 in 10.0 mi West 6.9 mph - N/A   Clear
2:55 AM 50.9 °F - 37.0 °F 59% 29.87 in 10.0 mi SW 4.6 mph - N/A   Clear
3:15 AM 50.2 °F - 36.7 °F 60% 29.87 in 10.0 mi West 6.9 mph - N/A   Clear
3:35 AM 48.2 °F - 36.7 °F 64% 29.86 in 10.0 mi West 6.9 mph - N/A   Clear
3:55 AM 48.4 °F - 36.3 °F 63% 29.86 in 10.0 mi South 4.6 mph - N/A   Clear
4:15 AM 47.3 °F - 36.5 °F 66% 29.86 in 10.0 mi WSW 5.8 mph - N/A   Clear
4:35 AM 47.5 °F - 36.1 °F 65% 29.86 in 10.0 mi WSW 9.2 mph - N/A   Clear
4:55 AM 45.9 °F 41.7 °F 35.8 °F 68% 29.85 in 10.0 mi WSW 8.1 mph - N/A   Clear
5:15 AM 46.6 °F - 35.6 °F 66% 29.85 in 10.0 mi WSW 9.2 mph - N/A   Clear
5:35 AM 45.5 °F 41.8 °F 35.2 °F 67% 29.85 in 10.0 mi WSW 6.9 mph - N/A   Clear
5:55 AM 44.6 °F 41.4 °F 35.1 °F 69% 29.85 in 10.0 mi WSW 5.8 mph - N/A   Clear
6:15 AM 43.7 °F - 34.7 °F 71% 29.85 in 10.0 mi Calm Calm - N/A   Clear
6:35 AM 43.9 °F 40.5 °F 34.7 °F 70% 29.86 in 10.0 mi West 5.8 mph - N/A   Clear
6:55 AM 45.3 °F 44.0 °F 34.0 °F 65% 29.86 in 10.0 mi WNW 3.5 mph - N/A   Clear
7:15 AM 45.0 °F 42.6 °F 34.7 °F 67% 29.86 in 10.0 mi West 4.6 mph - N/A   Clear
7:35 AM 45.5 °F 44.2 °F 34.9 °F 66% 29.86 in 10.0 mi NW 3.5 mph - N/A   Clear
7:55 AM 48.4 °F - 36.9 °F 64% 29.86 in 10.0 mi NW 4.6 mph - N/A   Clear
8:15 AM 52.0 °F - 36.0 °F 54% 29.86 in 10.0 mi NW 6.9 mph - N/A   Clear
8:35 AM 55.9 °F - 35.8 °F 47% 29.86 in 10.0 mi WNW 8.1 mph - N/A   Clear
8:55 AM 61.0 °F - 34.5 °F 37% 29.85 in 10.0 mi WNW 12.7 mph - N/A   Clear
9:15 AM 63.0 °F - 35.1 °F 35% 29.85 in 10.0 mi West 10.4 mph - N/A   Clear
9:35 AM 64.8 °F - 34.9 °F 33% 29.85 in 10.0 mi West 8.1 mph - N/A   Clear
9:55 AM 66.7 °F - 35.6 °F 32% 29.85 in 10.0 mi WNW 12.7 mph - N/A   Clear
10:15 AM 68.5 °F - 36.9 °F 31% 29.85 in 10.0 mi NW 8.1 mph - N/A   Clear
10:35 AM 73.4 °F - 37.4 °F 27% 29.85 in 10.0 mi WNW 11.5 mph 17.3 mph N/A   Clear
10:55 AM 74.1 °F - 33.1 °F 22% 29.84 in 10.0 mi WNW 10.4 mph 16.1 mph N/A   Clear
11:15 AM 76.3 °F - 31.8 °F 20% 29.84 in 10.0 mi NW 11.5 mph - N/A   Clear
11:35 AM 77.5 °F - 29.5 °F 17% 29.84 in 10.0 mi North 6.9 mph - N/A   Clear
11:55 AM 77.5 °F - 28.9 °F 17% 29.83 in 10.0 mi NNW 4.6 mph - N/A   Clear
12:15 PM 78.1 °F - 27.7 °F 16% 29.83 in 10.0 mi WNW 5.8 mph - N/A   Clear
12:35 PM 79.5 °F - 27.9 °F 15% 29.83 in 10.0 mi West 9.2 mph - N/A   Scattered Clouds
12:55 PM 80.1 °F - 27.1 °F 14% 29.82 in 10.0 mi WNW 8.1 mph - N/A   Scattered Clouds
1:15 PM 80.4 °F - 27.3 °F 14% 29.81 in 10.0 mi East 3.5 mph - N/A   Scattered Clouds
1:35 PM 78.6 °F - 27.5 °F 15% 29.81 in 10.0 mi North 4.6 mph - N/A   Scattered Clouds
1:55 PM 78.4 °F - 27.5 °F 15% 29.80 in 10.0 mi NW 15.0 mph 18.4 mph N/A   Clear
2:15 PM 80.4 °F - 31.3 °F 17% 29.80 in 10.0 mi North 9.2 mph 17.3 mph N/A   Clear
2:35 PM 81.7 °F - 30.0 °F 15% 29.80 in 10.0 mi East 9.2 mph 18.4 mph N/A   Clear
2:55 PM 78.4 °F - 30.0 °F 17% 29.80 in 10.0 mi East 10.4 mph 18.4 mph N/A   Scattered Clouds
3:15 PM 77.5 °F - 31.8 °F 19% 29.81 in 10.0 mi SE 18.4 mph 25.3 mph N/A   Scattered Clouds
3:35 PM 78.3 °F - 32.9 °F 19% 29.81 in 10.0 mi South 19.6 mph 24.2 mph N/A   Clear
3:55 PM 76.6 °F - 33.1 °F 20% 29.80 in 10.0 mi South 18.4 mph - N/A   Clear
4:15 PM 75.6 °F - 31.5 °F 20% 29.80 in 10.0 mi SSW 16.1 mph - N/A   Scattered Clouds
4:35 PM 76.1 °F - 31.8 °F 20% 29.80 in 10.0 mi SSW 15.0 mph - N/A   Scattered Clouds
4:55 PM 75.4 °F - 31.6 °F 20% 29.79 in 10.0 mi SSW 15.0 mph - N/A   Clear
5:15 PM 75.0 °F - 31.6 °F 20% 29.79 in 10.0 mi WSW 13.8 mph - N/A   Scattered Clouds
5:35 PM 72.3 °F - 34.3 °F 25% 29.80 in 10.0 mi WSW 29.9 mph 36.8 mph N/A   Overcast
5:55 PM 70.7 °F - 34.9 °F 27% 29.80 in 10.0 mi WSW 21.9 mph - N/A   Scattered Clouds
6:35 PM 72.1 °F - 34.2 °F 25% 29.77 in 10.0 mi South 18.4 mph - N/A   Mostly Cloudy
6:55 PM 73.4 °F - 34.2 °F 24% 29.77 in 10.0 mi SSW 12.7 mph - N/A   Scattered Clouds
7:15 PM 72.1 °F - 34.9 °F 26% 29.77 in 10.0 mi SW 3.5 mph - N/A   Scattered Clouds
7:35 PM 70.7 °F - 35.6 °F 28% 29.77 in 10.0 mi SW 3.5 mph - N/A   Clear
7:55 PM 68.9 °F - 37.2 °F 31% 29.76 in 10.0 mi WSW 3.5 mph - N/A   Clear
8:15 PM 68.2 °F - 37.4 °F 32% 29.76 in 10.0 mi WSW 3.5 mph - N/A   Clear
8:35 PM 66.2 °F - 39.0 °F 37% 29.76 in 10.0 mi SW 6.9 mph - N/A   Clear
8:55 PM 64.4 °F - 37.8 °F 37% 29.76 in 4.0 mi WSW 9.2 mph - N/A   Haze
9:15 PM 62.8 °F - 37.2 °F 39% 29.77 in 7.0 mi West 8.1 mph - N/A   Clear
9:35 PM 61.3 °F - 37.8 °F 42% 29.77 in 10.0 mi WSW 8.1 mph - N/A   Clear
9:55 PM 60.8 °F - 38.7 °F 44% 29.77 in 10.0 mi WSW 8.1 mph - N/A   Clear
10:15 PM 61.9 °F - 39.0 °F 43% 29.77 in 10.0 mi WSW 9.2 mph - N/A   Scattered Clouds
10:35 PM 58.5 °F - 39.0 °F 48% 29.78 in 10.0 mi WSW 8.1 mph - N/A   Clear
10:55 PM 57.0 °F - 39.4 °F 52% 29.78 in 10.0 mi WSW 5.8 mph - N/A   Clear
11:15 PM 56.5 °F - 39.4 °F 53% 29.78 in 10.0 mi SW 8.1 mph - N/A   Clear
11:35 PM 57.9 °F - 38.3 °F 48% 29.78 in 10.0 mi South 9.2 mph - N/A   Clear
11:55 PM 57.6 °F - 38.3 °F 49% 29.77 in 10.0 mi South 8.1 mph - N/A   Scattered Clouds